星链-11241 (STARLINK-11241)

导读 | 豆包AI

STARLINK-11241是美国太空探索技术公司SpaceX星链星座的组成卫星,于2024年8月31日发射升空,归属美国STARLINK星座网络。作为星链部署批次中的一员,该卫星承担着为全球提供高速互联网接入服务的任务,尤其服务偏远地区通讯、增强全球网络覆盖,是SpaceX大规模低轨卫星互联网组网进程的一环。

基本信息
目录编号:
60936
目录名称:
STARLINK-11241
国际标识:
2024-155N
轨道中心:
EARTH
卫星名称:
星链-11241
卫星全名:
星链-11241 (STARLINK-11241)
卫星状态:
在轨 (已飞行561 天)
发射日期:
2024-08-31 UTC
国别 :
美国 (US)
星等 :
--
轨道信息
数据来源 国际轨道数据
星历时间: 2026-03-15T06:33:31+0800
14小时前
查看轨道信息
半长轴: 6737.909km
偏心率: 0.0001141
轨道倾角: 53.159°
近地点辐角 119.586°
升交点赤经 315.610°
平近点角 240.527°
近地点: 359.003km
远地点: 360.541km
周期: 91.738分钟
每日圈数: 15.696942
详细信息
固有亮度:
5
最大亮度:
2.5
卫星平台:
Starlink V1.0
覆盖范围:
全球
运营商:
太空探索技术公司
运营商所在国:
美国
制造商(研发单位):
太空探索技术公司
制造商所在国:
美国
使用方式:
暂无
卫星简介
Starlink 计划是 SpaceX 推出的全球卫星互联网项目,通过发射低轨道卫星,为全球尤其是偏远地区提供高速、低延迟的互联网服务。自 2019 年起,Starlink 已部署数千颗卫星,旨在缩小全球数字鸿沟,推动互联网普及。该项目还为军事、航空等行业提供通信支持,带来广泛经济效益。
2D轨道图
3D轨道图
轨道高度分析图
轨道倾角分析图
轨道综合分析图
查看轨道综合分析图